カタログに戻る

STARLINK-36896

運用中通信VLEO
NORAD 68092·PAYLOAD·🇺🇸 United States

打ち上げ Mar 4, 2026 から Vandenberg Space Force Base

Loading…

次のパス (今後24時間)

TLE

最新Source: CelesTrak SupGP

元期: Sep 14, 2026, 21:08 UTC

1 68092C 26042Z   26257.88104167  .00026049  00000+0  76978-3 0  2573
2 68092  53.1605  15.9790 0001237  78.9592  47.6145 15.34371223    10

AllMySatでSTARLINK-36896をリアルタイム追跡

Download on the App Store